Location: Unspecified
(48.7670°N, 0.0000°E)
Time: 04:40:06
(UTC+00:00)

Vanguard 2 Rocket - Pass Details

Date: 03 October 2020
Orbit: 554 x 3326 km, 32.9° (Epoch: 26 October)

Event Time Altitude Azimuth Distance (km) Brightness Sun altitude
Exits shadow 23:38:49 17° 107° (ESE) 5,318 10.5 -45.6°
Drops below altitude 10° 23:43:42 10° 95° (E) 6,140 11.0 -45.7°
Sets 23:50:07 0° 85° (E) 7,304 11.6 -45.7°
